THORAD AGENA D DEB, 4715

Orbit data source: Space-Track

THORAD AGENA D DEB, 4715 is space debris in SSO originally from a launch on Wed, 08 Apr 1970 UTC launched from the Air Force Western Test Range (AFWTR). Debris objects in space refer to the collection of defunct objects orbiting the Earth. Examples of debris include non-operational satellites, rocket bodies, and fragments generated from explosions, collisions, or faulty payload assembly.

Loading next visibility...
Identifier
4715, 1970-025BZ
Orbit
SSO
Country
Flag of USUS
Related business
Manufacturer
Unknown
Mission
Spacecraft
Bus & Motor
Unknown
Mass
Unknown
Launch date (UTC)
1970-04-08 (56 years ago)
Launch vehicle
Unknown
Launch site
Air Force Western Test Range (AFWTR)
Object type
Payload
Rocket body
Debris
Shape & HBR
Unknown shape, 0.1 m
Radar Cross Section
Small (<0.1 m²)

Expand to show TLE details & history
Last TLE update: 17 hours ago

TLE from 17 hours ago
0 THORAD AGENA D DEB
1 04715U 70025BZ  25295.13179475  .00000668  00000-0  65437-3 0  9999
2 04715  99.1480 358.2610 0035348  27.4979  38.1121 13.82348168780540
Epoch: 2025-10-22T03:09Z
TLE epoch observation values (Epoch: 2025-10-22T03:09:47.066Z)
Latitude
64.37197°
Longitude
-99.50231°
Altitude
946.243 km
Speed
7.395 km/s
True Right ascension
22h 35m 00s
True Declination
64° 14' 28"
Sunlit
Object was in daylight at epoch
Visualization orbit readout
Latitude
Unknown
Longitude
Unknown
Altitude
Unknown
Speed
Unknown
Apparent Right ascension
Unknown
Apparent Declination
Unknown
Sunlit
N/A
Visualization observer readout
Local Sidereal Time
15:33:57
Azimuth
Unknown
Elevation
Unknown
Doppler factor
Unknown
Orbital elements
Apogee altitude
978.714 km
Perigee altitude
926.887 km
Semi-major axis
7,330.937 km
Eccentricity
0.00353
Inclination
99.148°
RAAN
358.261°
Arg. of periapsis
27.4979°
True anomaly
38.36297°
Mean anomaly
38.1121°
Eccentric anomaly
38.23745°
Mean motion
3.45783 °/min
Orbital period
104.11 mins
BSTAR
0.00065437

Documentation

Showing up to 5 results
|